Погода в Клименках

Россия / Белгородская область     50°03′13″N   38°22′49″E
темп.,
°C
ветер,
м/с
пор.,
м/с
влажн.,
%
обл.,
%
осадки,
мм/ч
давл.,
гПа
погр.,
м
13 апреля, вт
вт1300:00+12в227347 0.0 102222
03:00+10вюв497879 0.0 1023169
06:00+10в497837 0.0 1023170
09:00+15вюв61155100 0.0 1023546
12:00+19вюв811385 0.0 10211342
15:00+18юв8125289 0.0 10211536
18:00+16ююв7116418 0.2 10211197
21:00+12ююв358437 0.2 1022108
14 апреля, ср
ср1400:00+10юв0090100 0.0 102110
03:00+10ссв119068 0.1 102011
06:00+9всв229099 0.0 101913
09:00+13юв4653100 0.0 1019424
12:00+17юв675185 0.0 10181234
15:00+18ююв4841100 0.0 10162594
18:00+16юв2449100 0.0 1016254
21:00+13вюв4854100 0.0 1017201
15 апреля, чт
чт1500:00+12ю1165100 0.0 101522
03:00+11в2265100 0.0 101522
06:00+12вюв1164100 0.0 101410
09:00+12зсз2266100 0.1 1015204
12:00+15всв235588 0.0 1014939
15:00+16ю3350100 0.1 10131421
18:00+16вюв225033 0.0 1012167
21:00
16 апреля, пт
пт1600:00+10юз3683100 0.0 1014297
03:00+10юз2485100 0.0 1013211
06:00+8ююз369343 0.0 1014213
09:00+11ююз45655 0.0 1015831
12:00+14ююз554832 0.0 10151483
15:00+15ююз4540100 0.0 10152238
18:00+12зюз455492 0.0 1016567
21:00+10зсз4862100 0.0 1016351
17 апреля, сб
сб1700:00+9юз236395 0.0 1018107
03:00+7з22705 0.0 101817
06:00+6зюз1274100 0.0 101821
09:00+10з3359100 0.0 1018660
12:00+12сз4450100 0.1 10191561
15:00+12ссз445684 0.1 10181199
18:00+11сз456781 0.1 1018764
21:00+9сз1577100 0.1 1019254